Погода в Учаджи

Погода в Учаджи : погода сейчас, прогноз погоды и архив. Всё, что Вы хотите узнать о погоде в Учаджи!

Хотите узнать прогноз погоды в Учаджи? Тогда Вам сюда: Погода в Учаджи

Поиск расширенной информации на нашем сайте:

Другие новости

Новости СМИ2

Главная страница сайта

Новости сайта

03.07.2017

Напоминаем, что на нашем специализированном сайте Метеоцентр.Азия вы можете получить высокодетализированные автоматические прогнозы погоды по пунктам России, СНГ и мира в авиационном формате (включающие направление и скорость ветра, видимость, явления погоды, количество и форму облачности, нижнюю и верхнюю границу облачности).


Погода в Учаджи - сегодня

Время (UTC), дата Ветер
(°,м/с) 
Видим.   Явления Облачность Т
(°С)
Тd
(°С)
f(%) Тe
(°С)
Pmin
(гПа)
dP
(гПа)
Po
(мм)
O2
(г/м3)
Тmin Tmax R s Состояние
почвы
21 23.05.18 070 (В) 10 км    ясно 
+25.3 +1.9 22 +25  1015.8  746  275           
00 24.05.18 020 (С) 10 км    ясно 
+21.3 +0.9 26 +21  1015.1  -1  745  278           
03 24.05.18 050 (СВ) 10 км    ясно 
+23 +1.7 25 +23  1016.1  1.1  751  279           
06 24.05.18 070 (В) 10 км    ясно 
+30 +1.9 17 +30  1015.6  746  270  +18.2         
09 24.05.18 110 (В) 10 км    ясно 
+33.2 +1.5 13 +33  1013.5  -1.9  744  267           
12 24.05.18 070 (В) 10 км    ясно 
+34.4 +0.4 12 +34  1011.6  -1.8  743  266           
15 24.05.18 050 (СВ) 10 км    ясно 
+32 +1.1 14 +32  1011.1  -0.5  743  268    +35.4       
18 24.05.18 020 (С) 10 км    ясно 
+25.9 -5.7 12 +26  1011.9  0.3  743  274    +35.4       
21 24.05.18 070 (В) 10 км    ясно 
+20.2 -1.4 23 +20  1011.4  -0.9  742  279           
00 25.05.18 340 (С) 10 км    ясно 
+16 -0.2 33 +17  1011.1  -0.6  742  282           
03 25.05.18 020 (С) 10 км    ясно 
+18.7 -0.7 27 +20  1011.5  0.6  751  283           
06 25.05.18 020 (С) 10 км    ясно 
+27.8 +0 16 +28  1010.6  -0.2  742  271  +15         
09 25.05.18 270 (З) 10 км    ясно 
+32.2 -1.9 11 +32  1008.9  -1.4  741  267           
12 25.05.18 320 (СЗ) 10 км    ясно 
+34.4 +1.3 12 +34  1007.8  -1  740  265           
15 25.05.18 230 (ЮЗ) 10 км    ясно 
+33.2 +4.6 17 +33  1007.4  -0.5  740  265    +35       
18 25.05.18 270 (З) 10 км    ясно 
+24.2 +3.6 26 +24  1008  740  273    +35       
21 25.05.18 тихо ()   10 км    ясно 
+21 +5 35 +21  1008.2  740  276           
00 26.05.18 200 (Ю) 10 км    ясно 
+16.4 +5.9 50 +17  1008.6  740  280           
03 26.05.18 200 (Ю) 10 км    ясно 
+21.8 +3.8 31 +22  1008.9  0.8  740  276           
06 26.05.18 230 (ЮЗ) 10 км    ясно 
+32.3 +0.6 13 +32  1008.4  0.2  740  267  +14         
09 26.05.18 270 (З) 10 км    ясно 
+36.3 -1.7 9 +36  1006.8  -1.3  740  263           
12 26.05.18 250 (З) 10 км    ясно 
+37.2 -2.5 8 +37  1004.7  -2  738  262           
15 26.05.18 270 (З) 10 км    3/0 верхняя 
[Ci fib]
+35.6 -1.4 9 +36  1004.6  -0.2  738  263    +39.3       
18 26.05.18 320 (СЗ) 10 км    ясно 
+22.4 +3 28 +22  1005.8  0.3  738  274    +39.3       
21 26.05.18 230 (ЮЗ) 10 км    ясно 
+17.5 +2.3 36 +19  1006.7  0.5  738  279           
Время (UTC), дата Ветер
(°,м/с) 
Видим.   Явления Облачность Т
(°С)
Тd
(°С)
f(%) Тe
(°С)
Pmin
(гПа)
dP
(гПа)
Po
(мм)
O2
(г/м3)
Тmin Tmax R s Состояние
почвы

Для получения пояснительной информации подведите курсор к названию столбца.

ПОГОДА в Учаджи - архив

Всё, что Вы хотите узнать о погоде в Учаджи - удобно и подробно!

Выберите нужную дату (начиная с 1 января 2015* года) и нажмите кнопку "Найти".
Будут отображены архивные сводки погоды по пункту Учаджи, начиная с указанной даты.


Отображать данные в формате CSV (для использования в таблицах Excel)


Внимание! Наш архив погоды предназначен исключительно для личного некоммерческого использования в познавательных целях. Если Вам необходимы официальные справки о состоянии погоды (для производственных, юридических, коммерческих и т.п. целей), обращайтесь в органы Росгидромета.

*Примечание: данная дата относится к архиву по метеостанциям СССР (Россия, СНГ, Балтия).
Архив по метеостанциям Зарубежной Европы и Азии (кроме Китая) хранится 10 дней, по другим регионам земного шара (Китай, Африка, Америка, Австралия, Океания) - 1 день.

Учаджи - район местоположения метеостанции


Название, широта, долгота, высота метеостанции:
Учаджи 38.1°ш. 62.8°д. 185 м над ур. моря [Туркменистан]

Дополнительная информация

В oтличие oт бoльшинства пoгoдных сайтoв мы публикуем пoдрoбную метеoинфoрмацию в детальнoм прoфессиoнальнoм фoрмате.

Характеристики температуры и влажнoсти вoздуха измеряются на высoте 2 м в тени вдали oт зданий и деревьев.
Скoрoсть ветра измеряется на высoте 10 м (на урoвне рoста челoвека скoрoсть ветра ниже в 1.5-2 раза). Если метеoстанция нахoдится в гoрoде или в лесу, тo скoрoсть ветра занижена на 2-4 м/с пo сравнению с oткрытым местoм. Скoрoсть ветра над акватoриями крупных рек и oзёр, а также на вершинах хoлмoв на 2-5 м/с выше, чем в oбычных услoвиях.
Атмoсфернoе давление в разных тoчках местнoсти мoжет значительнo oтличаться oт давления на метеoстанции, в зависимoсти oт услoвий рельефа (при пoдъёме на 10 м давление пoнижается примернo на 1 мм рт.ст.).